Home   Weather   Oshawa   Past weeks

Flag for Canada Past Weather in Oshawa, Ontario, Canada — Yesterday and Last 2 Weeks

Now
52 °F

Partly sunny.


Feels Like: 48 °F
Forecast: N/A
Wind: 12 mph from East

Location: Toronto Buttonville

Current Time: Apr 24, 2017 at 7:29:38 pm

Latest Report: Apr 24, 2017 at 6:00 pm


Visibility: 15 mi

Pressure: 30.11 "Hg

Humidity: 44%

Dew Point: 30 °F

Location of OshawaLocation

Past Weather in Oshawa — Graph

°F

Oshawa Temperature Yesterday

Maximum temperature yesterday: 68 °F (at 4:00 pm)
Minimum temperature yesterday: 36 °F (at 6:00 am)
Average temperature yesterday: 52 °F

High & Low Weather Summary for the Past Weeks

 TemperatureHumidityPressure
High73 °F (Apr 10, 1:00 pm)100% (Apr 15, 1:29 pm)30.52 "Hg (Apr 15, 1:29 pm)
Low30 °F (Apr 18, 5:00 am)19% (Apr 14, 7:00 pm)29.69 "Hg (Apr 16, 12:00 pm)
Average50 °F67%30.09 "Hg
* Reported Apr 9 6:00 pm — Apr 24 6:00 pm, Oshawa, Weather by CustomWeather, © 2017

Note: Actual official high and low records may vary slightly from our data, if they occured in-between our weather recording intervals... More about our weather records

Advertising

Oshawa Weather History for the Previous 24 Hours

Scroll right to see more
 ConditionsComfort  
Time TempWeatherWind HumidityBarometerVisibility
6:00 pm
Mon, Apr 24
52 °FPartly sunny.12 mph44%30.11 "Hg15 mi
5:00 pm52 °FPartly sunny.13 mph47%30.13 "Hg15 mi
4:00 pm52 °FScattered clouds.13 mph50%30.14 "Hg15 mi
3:00 pm52 °FScattered clouds.14 mph50%30.16 "Hg15 mi
2:00 pm52 °FScattered clouds.14 mph54%30.17 "Hg15 mi
1:00 pm50 °FPassing clouds.17 mph54%30.19 "Hg15 mi
12:00 pm50 °FPassing clouds.13 mph54%30.20 "Hg15 mi
11:00 am50 °FPassing clouds.12 mph62%30.20 "Hg15 mi
10:00 am46 °FPassing clouds.12 mph62%30.20 "Hg15 mi
9:00 am45 °FPassing clouds.12 mph71%30.19 "Hg15 mi
8:00 am45 °FPassing clouds.8 mph71%30.19 "Hg15 mi
7:00 am43 °FPassing clouds.5 mph76%30.17 "Hg15 mi
6:00 am43 °FPassing clouds.3 mph76%30.16 "Hg15 mi
5:00 am43 °FPassing clouds.7 mph76%30.14 "Hg15 mi
4:00 am43 °FPassing clouds.7 mph76%30.12 "Hg15 mi
3:00 am43 °FClear.7 mph76%30.11 "Hg15 mi
2:00 am45 °FClear.2 mph71%30.10 "Hg15 mi
1:00 am46 °FClear.7 mph66%30.09 "Hg15 mi
12:00 am46 °FClear.9 mph71%30.09 "Hg15 mi
11:00 pm
Sun, Apr 23
48 °FClear.8 mph66%30.09 "Hg15 mi
10:00 pm52 °FClear.7 mph58%30.10 "Hg15 mi
9:00 pm55 °FPassing clouds.9 mph51%30.08 "Hg15 mi
8:00 pm59 °FScattered clouds.12 mph48%30.05 "Hg15 mi
7:00 pm64 °FPassing clouds.9 mph34%30.03 "Hg15 mi
Weather by CustomWeather, © 2017

See weather overviewHow to use our weather pages